FDX842 KMIA-SPJC

Flight info

Callsign FDX842
Flight time N/A
Altitude 32000
Route GWAVA2 URSUS UL780 TBG UM542 ISREN UL308 ATATU ATATU4
Aircraft B77L/H-SDE1E2E3FGHIJ2J3J4J5M1RWXY/LB1D1

Departure

Time 2026-05-05 04:35
Airport Miami International Airport (KMIA)

Arrival

Time N/A
Airport Jorge Chávez International Airport (SPJC)
Time Latitude Longitude Altitude Speed Heading
2026-05-05 04:19 25.80516 -80.29384 19 ft 0 kts 358°
2026-05-05 04:26 25.80507 -80.29383 19 ft 2 kts 358°
2026-05-05 04:26 25.80492 -80.29383 19 ft 1 kts 358°
2026-05-05 04:27 25.80483 -80.29382 19 ft 2 kts 353°
2026-05-05 04:27 25.80468 -80.29378 19 ft 2 kts 334°
2026-05-05 04:27 25.80455 -80.29370 19 ft 2 kts 319°
2026-05-05 04:27 25.80445 -80.29358 19 ft 2 kts 304°
2026-05-05 04:28 25.80438 -80.29343 19 ft 2 kts 289°
2026-05-05 04:28 25.80435 -80.29327 19 ft 2 kts 274°
2026-05-05 04:28 25.80434 -80.29318 19 ft 1 kts 266°
2026-05-05 04:28 25.80435 -80.29316 19 ft 0 kts 266°
2026-05-05 04:30 25.80435 -80.29317 19 ft 0 kts 266°
2026-05-05 04:30 25.80433 -80.29356 19 ft 8 kts 267°
2026-05-05 04:30 25.80429 -80.29446 19 ft 13 kts 268°
2026-05-05 04:31 25.80426 -80.29542 19 ft 11 kts 267°
2026-05-05 04:31 25.80422 -80.29626 19 ft 10 kts 266°
2026-05-05 04:31 25.80418 -80.29701 19 ft 9 kts 268°
2026-05-05 04:31 25.80416 -80.29781 18 ft 12 kts 268°
2026-05-05 04:32 25.80412 -80.29885 18 ft 13 kts 268°
2026-05-05 04:32 25.80408 -80.29981 18 ft 11 kts 267°
2026-05-05 04:32 25.80406 -80.30025 18 ft 5 kts 267°
2026-05-05 04:32 25.80402 -80.30094 18 ft 12 kts 263°
2026-05-05 04:33 25.80350 -80.30144 18 ft 10 kts 181°
2026-05-05 04:33 25.80269 -80.30141 18 ft 12 kts 178°
2026-05-05 04:33 25.80186 -80.30138 18 ft 11 kts 178°
2026-05-05 04:33 25.80110 -80.30134 18 ft 9 kts 173°
2026-05-05 04:34 25.80071 -80.30102 18 ft 6 kts 98°
2026-05-05 04:34 25.80075 -80.30020 18 ft 16 kts 86°
2026-05-05 04:34 25.80085 -80.29767 19 ft 60 kts 87°
2026-05-05 04:34 25.80115 -80.29057 20 ft 123 kts 87°
2026-05-05 04:35 25.80163 -80.27904 21 ft 177 kts 86°
2026-05-05 04:35 25.80219 -80.26427 361 ft 195 kts 90°
2026-05-05 04:35 25.80013 -80.24970 1184 ft 192 kts 108°
2026-05-05 04:35 25.79392 -80.23704 1674 ft 197 kts 128°
2026-05-05 04:36 25.78209 -80.22793 1846 ft 219 kts 156°
2026-05-05 04:36 25.76793 -80.22003 2062 ft 236 kts 141°
2026-05-05 04:36 25.75475 -80.20833 2380 ft 252 kts 138°
2026-05-05 04:36 25.74053 -80.19680 2946 ft 259 kts 154°
2026-05-05 04:37 25.72281 -80.19196 3599 ft 263 kts 174°
2026-05-05 04:37 25.70475 -80.19097 4300 ft 263 kts 178°
2026-05-05 04:37 25.68640 -80.19040 4933 ft 265 kts 179°
2026-05-05 04:37 25.66795 -80.19122 5505 ft 269 kts 187°
2026-05-05 04:38 25.64907 -80.19374 6118 ft 271 kts 189°
2026-05-05 04:38 25.63030 -80.19597 6692 ft 275 kts 181°
2026-05-05 04:38 25.61166 -80.19152 7215 ft 282 kts 158°
2026-05-05 04:38 25.59404 -80.18117 7775 ft 286 kts 152°
2026-05-05 04:39 25.57701 -80.16988 8311 ft 290 kts 152°
2026-05-05 04:39 25.55970 -80.15834 8870 ft 292 kts 153°
2026-05-05 04:39 25.54231 -80.14681 9379 ft 295 kts 154°
2026-05-05 04:39 25.52440 -80.13500 9885 ft 297 kts 154°
2026-05-05 04:40 25.50650 -80.12320 10296 ft 305 kts 154°
2026-05-05 04:40 25.48780 -80.11091 10451 ft 322 kts 153°
2026-05-05 04:40 25.46801 -80.09789 10609 ft 339 kts 153°
2026-05-05 04:40 25.44708 -80.08411 10811 ft 356 kts 153°
2026-05-05 04:41 25.42540 -80.06984 11031 ft 371 kts 153°
2026-05-05 04:41 25.40276 -80.05495 11290 ft 386 kts 153°
2026-05-05 04:41 25.37965 -80.03974 11796 ft 392 kts 153°
2026-05-05 04:41 25.35611 -80.02425 12445 ft 395 kts 153°
2026-05-05 04:42 25.33242 -80.00866 13098 ft 399 kts 153°
2026-05-05 04:42 25.30829 -79.99281 13722 ft 404 kts 153°
2026-05-05 04:42 25.28400 -79.97686 14339 ft 410 kts 153°
2026-05-05 04:42 25.25939 -79.96067 14999 ft 416 kts 152°
2026-05-05 04:43 25.23480 -79.94338 15697 ft 421 kts 151°
2026-05-05 04:43 25.21021 -79.92579 16350 ft 427 kts 151°
2026-05-05 04:43 25.18509 -79.90787 16955 ft 434 kts 151°
2026-05-05 04:43 25.15961 -79.88972 17601 ft 439 kts 151°
2026-05-05 04:44 25.13345 -79.87113 18203 ft 445 kts 152°
2026-05-05 04:44 25.10760 -79.85280 18803 ft 450 kts 152°
2026-05-05 04:44 25.08092 -79.83388 19459 ft 453 kts 152°
2026-05-05 04:44 25.05434 -79.81506 20048 ft 458 kts 151°
2026-05-05 04:45 25.02751 -79.79607 20620 ft 463 kts 152°
2026-05-05 04:45 25.00005 -79.77666 21184 ft 468 kts 152°
2026-05-05 04:45 24.97253 -79.75721 21765 ft 472 kts 152°
2026-05-05 04:45 24.94497 -79.73776 22263 ft 477 kts 152°
2026-05-05 04:46 24.91692 -79.71796 22778 ft 482 kts 151°
2026-05-05 04:46 24.88842 -79.69787 23267 ft 487 kts 151°
2026-05-05 04:46 24.85983 -79.67770 23740 ft 492 kts 151°
2026-05-05 04:46 24.83076 -79.65720 24275 ft 495 kts 151°
2026-05-05 04:47 24.80193 -79.63688 24830 ft 498 kts 151°
2026-05-05 04:47 24.77243 -79.61611 25315 ft 503 kts 151°
2026-05-05 04:47 24.74276 -79.59523 25740 ft 509 kts 151°
2026-05-05 04:47 24.71273 -79.57410 26232 ft 513 kts 151°
2026-05-05 04:48 24.68259 -79.55292 26738 ft 517 kts 151°
2026-05-05 04:48 24.65221 -79.53156 27257 ft 521 kts 150°
2026-05-05 04:48 24.62194 -79.51031 27782 ft 524 kts 151°
2026-05-05 04:48 24.59098 -79.48859 28238 ft 529 kts 151°
2026-05-05 04:49 24.55962 -79.46659 28680 ft 534 kts 151°
2026-05-05 04:49 24.52845 -79.44475 29132 ft 539 kts 150°
2026-05-05 04:49 24.49676 -79.42254 29724 ft 540 kts 150°
2026-05-05 04:49 24.46519 -79.40043 30401 ft 539 kts 151°
2026-05-05 04:50 24.43361 -79.37833 31094 ft 537 kts 150°
2026-05-05 04:50 24.40225 -79.35638 31734 ft 536 kts 150°
2026-05-05 04:50 24.37041 -79.33414 31956 ft 541 kts 152°
2026-05-05 04:51 24.30701 -79.28987 31974 ft 539 kts 151°
2026-05-05 04:51 24.24435 -79.24509 31978 ft 535 kts 150°
2026-05-05 04:52 24.18210 -79.20031 31976 ft 539 kts 150°
2026-05-05 04:52 24.11942 -79.15530 31987 ft 539 kts 150°
2026-05-05 04:53 24.05668 -79.11095 31974 ft 536 kts 154°
2026-05-05 04:53 23.98828 -79.08092 31966 ft 523 kts 172°
2026-05-05 04:54 23.91674 -79.07286 31974 ft 513 kts 186°
2026-05-05 04:54 23.84571 -79.07381 31959 ft 508 kts 187°
2026-05-05 04:55 23.77502 -79.07514 31961 ft 508 kts 187°
2026-05-05 04:55 23.70371 -79.07660 31966 ft 510 kts 187°
2026-05-05 04:56 23.63310 -79.07809 31963 ft 506 kts 187°
2026-05-05 04:56 23.56254 -79.07964 31962 ft 510 kts 187°
2026-05-05 04:57 23.49159 -79.08118 31963 ft 507 kts 187°
2026-05-05 04:57 23.42102 -79.08274 31965 ft 507 kts 187°
2026-05-05 04:58 23.35035 -79.08430 31963 ft 505 kts 187°
2026-05-05 04:58 23.27978 -79.08588 31965 ft 507 kts 187°
2026-05-05 04:59 23.20921 -79.08743 31965 ft 506 kts 187°
2026-05-05 04:59 23.13874 -79.08899 31966 ft 505 kts 187°
2026-05-05 05:00 23.06837 -79.09055 31964 ft 505 kts 187°
2026-05-05 05:00 22.99787 -79.09211 31965 ft 505 kts 187°
2026-05-05 05:01 22.92772 -79.09366 31970 ft 504 kts 187°
2026-05-05 05:01 22.85723 -79.09522 31967 ft 508 kts 187°
2026-05-05 05:02 22.78654 -79.09677 31976 ft 505 kts 187°
2026-05-05 05:02 22.71641 -79.09832 31976 ft 506 kts 187°
2026-05-05 05:03 22.64543 -79.09988 31978 ft 507 kts 187°
2026-05-05 05:03 22.57529 -79.10140 31983 ft 505 kts 187°
2026-05-05 05:04 22.50473 -79.10295 31982 ft 508 kts 187°
2026-05-05 05:04 22.43426 -79.10446 31978 ft 503 kts 187°
2026-05-05 05:05 22.36374 -79.10600 31983 ft 505 kts 187°
2026-05-05 05:05 22.29326 -79.10754 31991 ft 508 kts 187°
2026-05-05 05:06 22.22288 -79.10905 31996 ft 505 kts 187°
2026-05-05 05:06 22.15206 -79.11059 31996 ft 505 kts 187°
2026-05-05 05:07 22.08192 -79.11211 31997 ft 505 kts 187°
2026-05-05 05:07 22.01160 -79.11362 32000 ft 504 kts 187°
2026-05-05 05:08 21.94088 -79.11515 31998 ft 507 kts 187°
2026-05-05 05:08 21.87047 -79.11667 31993 ft 507 kts 187°
2026-05-05 05:09 21.79995 -79.11824 31993 ft 504 kts 187°
2026-05-05 05:09 21.72999 -79.11981 31985 ft 505 kts 187°
2026-05-05 05:10 21.65924 -79.12139 31986 ft 503 kts 187°
2026-05-05 05:10 21.58951 -79.12296 31991 ft 503 kts 187°
2026-05-05 05:11 21.51938 -79.12453 31986 ft 502 kts 187°
2026-05-05 05:11 21.44944 -79.12610 31985 ft 502 kts 187°
2026-05-05 05:12 21.37941 -79.12766 31986 ft 500 kts 187°
2026-05-05 05:12 21.30925 -79.12924 31985 ft 505 kts 187°
2026-05-05 05:13 21.23960 -79.13079 31987 ft 501 kts 187°
2026-05-05 05:13 21.16993 -79.13235 31988 ft 502 kts 187°
2026-05-05 05:14 21.09977 -79.13392 31987 ft 501 kts 186°
2026-05-05 05:14 21.02994 -79.13547 31987 ft 498 kts 187°
2026-05-05 05:15 20.96046 -79.13703 31986 ft 501 kts 186°
2026-05-05 05:15 20.89100 -79.13858 31986 ft 500 kts 186°
2026-05-05 05:16 20.82138 -79.14013 31985 ft 499 kts 187°
2026-05-05 05:16 20.75175 -79.14168 31979 ft 501 kts 187°
2026-05-05 05:17 20.68177 -79.14323 31983 ft 499 kts 187°
2026-05-05 05:17 20.61261 -79.14477 31986 ft 499 kts 187°
2026-05-05 05:18 20.54324 -79.14631 31979 ft 497 kts 187°
2026-05-05 05:18 20.47348 -79.14786 31985 ft 499 kts 186°
2026-05-05 05:19 20.40418 -79.14939 31980 ft 497 kts 186°
2026-05-05 05:19 20.33484 -79.15093 31969 ft 499 kts 186°
2026-05-05 05:20 20.26556 -79.15246 31971 ft 496 kts 186°
2026-05-05 05:20 20.19669 -79.15398 31965 ft 495 kts 186°
2026-05-05 05:21 20.12726 -79.15552 31966 ft 496 kts 186°
2026-05-05 05:21 20.05842 -79.15704 31963 ft 496 kts 186°
2026-05-05 05:22 19.98925 -79.15859 31968 ft 497 kts 187°
2026-05-05 05:22 19.92008 -79.16098 31969 ft 495 kts 187°
2026-05-05 05:23 19.85088 -79.16347 31965 ft 496 kts 187°
2026-05-05 05:23 19.78192 -79.16590 31966 ft 494 kts 187°
2026-05-05 05:24 19.71288 -79.16833 31964 ft 495 kts 187°
2026-05-05 05:24 19.64382 -79.17075 31962 ft 494 kts 187°
2026-05-05 05:25 19.57499 -79.17315 31962 ft 494 kts 187°
2026-05-05 05:25 19.50601 -79.17556 31962 ft 496 kts 187°
2026-05-05 05:26 19.43722 -79.17795 31963 ft 495 kts 187°
2026-05-05 05:26 19.36810 -79.18034 31964 ft 495 kts 187°
2026-05-05 05:27 19.29903 -79.18275 31962 ft 494 kts 187°
2026-05-05 05:27 19.19600 -79.18632 31962 ft 493 kts 187°
2026-05-05 05:28 19.12737 -79.18870 31962 ft 494 kts 187°
2026-05-05 05:28 19.05841 -79.19108 31965 ft 492 kts 187°
2026-05-05 05:29 18.98990 -79.19345 31964 ft 494 kts 187°
2026-05-05 05:29 18.92102 -79.19583 31964 ft 495 kts 187°
2026-05-05 05:30 18.85179 -79.19822 31963 ft 495 kts 187°
2026-05-05 05:30 18.78312 -79.20059 31961 ft 494 kts 187°
2026-05-05 05:31 18.71423 -79.20297 31961 ft 495 kts 187°
2026-05-05 05:31 18.64559 -79.20532 31962 ft 494 kts 187°
2026-05-05 05:32 18.57660 -79.20770 31964 ft 495 kts 187°
2026-05-05 05:32 18.50787 -79.21006 31961 ft 494 kts 186°
2026-05-05 05:33 18.43854 -79.21245 31966 ft 495 kts 186°
2026-05-05 05:33 18.36958 -79.21481 31962 ft 496 kts 187°
2026-05-05 05:34 18.30081 -79.21717 31964 ft 495 kts 186°
2026-05-05 05:34 18.23187 -79.21953 31960 ft 495 kts 186°
2026-05-05 05:35 18.16283 -79.22189 31953 ft 496 kts 186°
2026-05-05 05:35 18.09386 -79.22426 31946 ft 495 kts 186°
2026-05-05 05:36 18.02465 -79.22662 31950 ft 495 kts 186°
2026-05-05 05:36 17.95557 -79.22898 31945 ft 495 kts 186°
2026-05-05 05:37 17.88678 -79.23133 31947 ft 495 kts 186°
2026-05-05 05:37 17.81749 -79.23369 31948 ft 495 kts 186°
2026-05-05 05:38 17.74871 -79.23604 31942 ft 496 kts 186°
2026-05-05 05:38 17.67998 -79.23837 31945 ft 494 kts 186°
2026-05-05 05:39 17.61085 -79.24072 31943 ft 493 kts 186°
2026-05-05 05:39 17.54213 -79.24307 31940 ft 493 kts 186°
2026-05-05 05:40 17.47337 -79.24540 31943 ft 494 kts 186°
2026-05-05 05:40 17.40499 -79.24772 31942 ft 493 kts 186°
2026-05-05 05:41 17.33597 -79.25006 31942 ft 493 kts 186°
2026-05-05 05:41 17.26691 -79.25240 31945 ft 494 kts 186°
2026-05-05 05:42 17.19845 -79.25472 31943 ft 492 kts 186°
2026-05-05 05:42 17.12979 -79.25705 31942 ft 492 kts 186°
2026-05-05 05:43 17.06148 -79.25935 31944 ft 491 kts 186°
2026-05-05 05:43 16.99291 -79.26167 31939 ft 492 kts 185°
2026-05-05 05:44 16.92440 -79.26399 31943 ft 493 kts 185°
2026-05-05 05:44 16.85536 -79.26632 31944 ft 493 kts 186°
2026-05-05 05:45 16.78700 -79.26862 31938 ft 492 kts 185°
2026-05-05 05:45 16.71809 -79.27095 31942 ft 492 kts 185°
2026-05-05 05:46 16.64970 -79.27325 31947 ft 492 kts 185°
2026-05-05 05:46 16.58076 -79.27557 31954 ft 494 kts 185°
2026-05-05 05:47 16.51187 -79.27789 31954 ft 495 kts 185°
2026-05-05 05:47 16.44333 -79.28019 31953 ft 494 kts 185°
2026-05-05 05:48 16.37422 -79.28251 31950 ft 494 kts 185°
2026-05-05 05:48 16.30553 -79.28481 31949 ft 494 kts 185°
2026-05-05 05:49 16.23633 -79.28714 31947 ft 495 kts 185°
2026-05-05 05:49 16.16717 -79.28945 31946 ft 496 kts 185°
2026-05-05 05:50 16.09833 -79.29176 31946 ft 497 kts 185°
2026-05-05 05:50 16.02894 -79.29408 31945 ft 497 kts 185°
2026-05-05 05:51 15.95958 -79.29640 31943 ft 496 kts 185°
2026-05-05 05:51 15.89052 -79.29871 31941 ft 496 kts 185°
2026-05-05 05:52 15.82135 -79.30102 31939 ft 496 kts 185°
2026-05-05 05:52 15.75229 -79.30332 31940 ft 495 kts 185°
2026-05-05 05:53 15.68341 -79.30562 31937 ft 495 kts 185°
2026-05-05 05:53 15.61428 -79.30792 31936 ft 496 kts 185°
2026-05-05 05:54 15.54484 -79.31023 31934 ft 496 kts 185°
2026-05-05 05:54 15.47611 -79.31252 31929 ft 496 kts 184°
2026-05-05 05:55 15.40679 -79.31483 31932 ft 494 kts 184°
2026-05-05 05:55 15.33816 -79.31711 31930 ft 494 kts 184°
2026-05-05 05:56 15.26908 -79.31941 31931 ft 494 kts 184°
2026-05-05 05:56 15.20028 -79.32169 31928 ft 495 kts 184°
2026-05-05 05:57 15.13144 -79.32397 31924 ft 495 kts 184°
2026-05-05 05:57 15.06252 -79.32626 31924 ft 494 kts 184°
2026-05-05 05:58 14.99375 -79.32853 31924 ft 493 kts 184°
2026-05-05 05:58 14.92482 -79.33121 31924 ft 493 kts 184°
2026-05-05 05:59 14.85626 -79.33393 31922 ft 494 kts 184°
2026-05-05 05:59 14.78707 -79.33665 31923 ft 494 kts 184°
2026-05-05 06:00 14.71837 -79.33935 31922 ft 495 kts 184°
2026-05-05 06:00 14.64930 -79.34206 31922 ft 495 kts 184°
2026-05-05 06:01 14.58056 -79.34475 31918 ft 494 kts 184°
2026-05-05 06:01 14.51147 -79.34745 31918 ft 495 kts 184°
2026-05-05 06:02 14.44264 -79.35014 31915 ft 495 kts 184°
2026-05-05 06:02 14.37337 -79.35284 31918 ft 495 kts 184°
2026-05-05 06:03 14.30466 -79.35552 31922 ft 495 kts 184°
2026-05-05 06:03 14.23502 -79.35825 32221 ft 505 kts 184°
2026-05-05 06:04 14.20002 -79.35960 33024 ft 500 kts 185°
2026-05-05 06:04 14.16493 -79.36096 33814 ft 495 kts 184°
2026-05-05 06:04 14.13051 -79.36230 33917 ft 492 kts 185°
2026-05-05 06:04 14.09677 -79.36361 33923 ft 488 kts 185°
2026-05-05 06:05 14.02792 -79.36629 33924 ft 488 kts 185°
2026-05-05 06:05 13.95896 -79.36897 33924 ft 487 kts 185°
2026-05-05 06:06 13.89151 -79.37160 33921 ft 487 kts 184°
2026-05-05 06:06 13.82315 -79.37425 33919 ft 487 kts 184°
2026-05-05 06:07 13.75553 -79.37688 33918 ft 487 kts 184°
2026-05-05 06:07 13.68734 -79.37952 33916 ft 487 kts 184°
2026-05-05 06:08 13.61953 -79.38216 33917 ft 488 kts 184°
2026-05-05 06:08 13.55174 -79.38478 33915 ft 488 kts 184°
2026-05-05 06:09 13.48359 -79.38742 33912 ft 488 kts 184°
2026-05-05 06:09 13.41578 -79.39005 33910 ft 487 kts 184°
2026-05-05 06:10 13.34796 -79.39267 33911 ft 487 kts 184°
2026-05-05 06:10 13.27998 -79.39529 33911 ft 487 kts 184°
2026-05-05 06:11 13.21218 -79.39792 33913 ft 488 kts 184°
2026-05-05 06:11 13.14434 -79.40054 33909 ft 488 kts 184°
2026-05-05 06:12 13.07613 -79.40317 33900 ft 488 kts 184°
2026-05-05 06:12 13.00817 -79.40578 33892 ft 488 kts 184°
2026-05-05 06:13 12.94000 -79.40842 33890 ft 487 kts 184°
2026-05-05 06:13 12.87206 -79.41103 33890 ft 487 kts 184°
2026-05-05 06:14 12.80438 -79.41364 33888 ft 487 kts 184°
2026-05-05 06:14 12.73659 -79.41625 33888 ft 487 kts 184°
2026-05-05 06:15 12.66850 -79.41887 33887 ft 487 kts 184°
2026-05-05 06:15 12.60032 -79.42149 33888 ft 487 kts 184°
2026-05-05 06:16 12.53221 -79.42411 33886 ft 486 kts 184°
2026-05-05 06:16 12.46420 -79.42672 33889 ft 486 kts 184°
2026-05-05 06:17 12.39626 -79.42933 33890 ft 486 kts 183°
2026-05-05 06:17 12.32826 -79.43194 33891 ft 486 kts 183°
2026-05-05 06:18 12.26068 -79.43453 33891 ft 487 kts 183°
2026-05-05 06:18 12.19251 -79.43714 33893 ft 487 kts 183°
2026-05-05 06:19 12.12504 -79.43973 33893 ft 486 kts 183°
2026-05-05 06:19 12.05689 -79.44234 33892 ft 486 kts 183°
2026-05-05 06:20 11.98947 -79.44492 33891 ft 485 kts 183°
2026-05-05 06:20 11.92149 -79.44752 33895 ft 486 kts 183°
2026-05-05 06:21 11.85364 -79.45011 33898 ft 486 kts 183°
2026-05-05 06:21 11.78592 -79.45270 33896 ft 487 kts 183°
2026-05-05 06:22 11.71777 -79.45530 33899 ft 486 kts 183°
2026-05-05 06:22 11.64968 -79.45790 33896 ft 486 kts 183°
2026-05-05 06:23 11.58185 -79.46049 33895 ft 486 kts 183°
2026-05-05 06:23 11.51434 -79.46306 33896 ft 486 kts 183°
2026-05-05 06:24 11.44660 -79.46564 33897 ft 486 kts 183°
2026-05-05 06:24 11.37880 -79.46822 33898 ft 486 kts 183°
2026-05-05 06:25 11.31115 -79.47080 33898 ft 485 kts 183°
2026-05-05 06:25 11.24293 -79.47340 33897 ft 485 kts 183°
2026-05-05 06:26 11.17557 -79.47596 33895 ft 485 kts 183°
2026-05-05 06:26 11.10757 -79.47855 33893 ft 486 kts 183°
2026-05-05 06:27 11.00616 -79.48240 33883 ft 485 kts 182°
2026-05-05 06:28 10.93831 -79.48498 33883 ft 487 kts 183°
2026-05-05 06:28 10.87046 -79.48756 33882 ft 486 kts 183°
2026-05-05 06:29 10.80209 -79.49015 33882 ft 486 kts 183°
2026-05-05 06:29 10.73415 -79.49273 33883 ft 486 kts 183°
2026-05-05 06:30 10.66632 -79.49530 33883 ft 486 kts 182°
2026-05-05 06:30 10.59828 -79.49788 33883 ft 486 kts 182°
2026-05-05 06:31 10.53015 -79.50046 33883 ft 487 kts 183°
2026-05-05 06:31 10.46203 -79.50291 33883 ft 487 kts 182°
2026-05-05 06:32 10.39372 -79.50532 33883 ft 487 kts 182°
2026-05-05 06:32 10.32597 -79.50771 33882 ft 486 kts 182°
2026-05-05 06:33 10.25777 -79.51013 33883 ft 487 kts 182°
2026-05-05 06:33 10.18963 -79.51254 33883 ft 487 kts 182°
2026-05-05 06:34 10.12203 -79.51494 33882 ft 487 kts 182°
2026-05-05 06:34 10.05396 -79.51735 33883 ft 487 kts 182°
2026-05-05 06:35 9.98532 -79.51977 33883 ft 486 kts 182°
2026-05-05 06:35 9.91737 -79.52218 33883 ft 487 kts 182°
2026-05-05 06:36 9.84904 -79.52460 33880 ft 487 kts 182°
2026-05-05 06:36 9.78091 -79.52701 33882 ft 487 kts 182°
2026-05-05 06:37 9.71258 -79.52942 33885 ft 487 kts 182°
2026-05-05 06:37 9.64455 -79.53182 33890 ft 487 kts 182°
2026-05-05 06:38 9.57636 -79.53423 33899 ft 488 kts 182°
2026-05-05 06:38 9.50798 -79.53664 33908 ft 487 kts 182°
2026-05-05 06:39 9.43945 -79.53906 33911 ft 488 kts 182°
2026-05-05 06:39 9.37110 -79.54147 33911 ft 487 kts 182°
2026-05-05 06:40 9.30317 -79.54387 33911 ft 486 kts 182°
2026-05-05 06:40 9.23562 -79.54625 33913 ft 482 kts 181°
2026-05-05 06:41 9.16786 -79.54864 33907 ft 483 kts 181°
2026-05-05 06:41 9.10036 -79.55101 33903 ft 482 kts 181°
2026-05-05 06:42 9.03264 -79.55340 33900 ft 482 kts 181°
2026-05-05 06:42 8.96543 -79.55576 33896 ft 482 kts 181°
2026-05-05 06:43 8.89799 -79.55814 33890 ft 483 kts 181°
2026-05-05 06:43 8.83058 -79.56050 33887 ft 482 kts 181°
2026-05-05 06:44 8.76342 -79.56752 33891 ft 483 kts 192°
2026-05-05 06:44 8.69724 -79.58249 33875 ft 483 kts 192°
2026-05-05 06:45 8.63143 -79.59753 33870 ft 484 kts 192°
2026-05-05 06:45 8.56528 -79.61261 33873 ft 482 kts 192°
2026-05-05 06:46 8.49935 -79.62763 33870 ft 484 kts 192°
2026-05-05 06:46 8.43337 -79.64265 33869 ft 484 kts 192°
2026-05-05 06:47 8.36743 -79.65765 33867 ft 484 kts 192°
2026-05-05 06:47 8.30129 -79.67268 33868 ft 483 kts 192°
2026-05-05 06:48 8.23530 -79.68767 33866 ft 484 kts 192°
2026-05-05 06:48 8.16919 -79.70270 33865 ft 484 kts 192°
2026-05-05 06:49 8.10300 -79.71773 33864 ft 485 kts 192°
2026-05-05 06:49 8.03660 -79.73280 33863 ft 486 kts 192°
2026-05-05 06:50 7.96990 -79.74794 33868 ft 485 kts 192°
2026-05-05 06:50 7.90377 -79.76295 33863 ft 485 kts 192°
2026-05-05 06:51 7.83761 -79.77795 33865 ft 485 kts 192°
2026-05-05 06:51 7.77136 -79.79297 33868 ft 485 kts 192°
2026-05-05 06:52 7.70553 -79.80788 33875 ft 486 kts 192°
2026-05-05 06:52 7.63920 -79.82291 33882 ft 486 kts 192°
2026-05-05 06:53 7.57285 -79.83793 33884 ft 486 kts 192°
2026-05-05 06:53 7.50627 -79.85300 33875 ft 487 kts 192°
2026-05-05 06:54 7.43916 -79.86818 33864 ft 488 kts 192°
2026-05-05 06:54 7.37229 -79.88330 33864 ft 489 kts 192°
2026-05-05 06:55 7.30588 -79.89831 33864 ft 490 kts 192°
2026-05-05 06:55 7.23892 -79.91345 33863 ft 489 kts 192°
2026-05-05 06:56 7.17199 -79.92857 33864 ft 491 kts 192°
2026-05-05 06:56 7.10527 -79.94365 33864 ft 491 kts 192°
2026-05-05 06:57 7.03783 -79.95888 33864 ft 492 kts 192°
2026-05-05 06:57 6.97058 -79.97406 33864 ft 493 kts 192°
2026-05-05 06:58 6.90351 -79.98920 33864 ft 492 kts 192°
2026-05-05 06:58 6.83613 -80.00440 33862 ft 491 kts 192°
2026-05-05 06:59 6.76891 -80.01957 33863 ft 492 kts 192°
2026-05-05 06:59 6.70173 -80.03471 33863 ft 492 kts 192°
2026-05-05 07:00 6.63448 -80.04987 33862 ft 492 kts 191°
2026-05-05 07:00 6.56739 -80.06499 33863 ft 493 kts 191°
2026-05-05 07:01 6.50003 -80.08017 33864 ft 492 kts 192°
2026-05-05 07:01 6.43247 -80.09539 33863 ft 492 kts 191°
2026-05-05 07:02 6.36538 -80.11021 33863 ft 492 kts 191°
2026-05-05 07:02 6.29877 -80.12470 33863 ft 492 kts 191°
2026-05-05 07:03 6.23126 -80.13939 33863 ft 491 kts 191°
2026-05-05 07:03 6.16434 -80.15396 33864 ft 491 kts 191°
2026-05-05 07:04 6.09719 -80.16859 33864 ft 491 kts 191°
2026-05-05 07:04 6.02982 -80.18327 33864 ft 492 kts 191°
2026-05-05 07:05 5.96290 -80.19784 33865 ft 492 kts 191°
2026-05-05 07:05 5.89570 -80.21247 33866 ft 492 kts 191°
2026-05-05 07:06 5.82857 -80.22708 33871 ft 492 kts 191°
2026-05-05 07:06 5.76121 -80.24174 33872 ft 492 kts 191°
2026-05-05 07:07 5.69369 -80.25643 33861 ft 491 kts 191°
2026-05-05 07:07 5.62683 -80.27097 33860 ft 491 kts 191°
2026-05-05 07:08 5.55953 -80.28561 33863 ft 493 kts 191°
2026-05-05 07:08 5.49227 -80.30024 33864 ft 493 kts 191°
2026-05-05 07:09 5.42502 -80.31486 33864 ft 494 kts 190°
2026-05-05 07:09 5.35750 -80.32953 33865 ft 493 kts 191°
2026-05-05 07:10 5.29007 -80.34418 33865 ft 493 kts 191°
2026-05-05 07:10 5.22254 -80.35886 33866 ft 493 kts 190°
2026-05-05 07:11 5.15532 -80.37345 33865 ft 494 kts 190°
2026-05-05 07:11 5.08821 -80.38802 33865 ft 494 kts 190°
2026-05-05 07:12 5.02037 -80.40275 33865 ft 494 kts 190°
2026-05-05 07:12 4.95321 -80.41733 33865 ft 494 kts 190°
2026-05-05 07:13 4.88577 -80.43196 33864 ft 492 kts 190°
2026-05-05 07:13 4.81843 -80.44657 33865 ft 493 kts 190°
2026-05-05 07:14 4.75108 -80.46118 33865 ft 493 kts 190°
2026-05-05 07:14 4.68368 -80.47580 33865 ft 493 kts 190°
2026-05-05 07:15 4.61637 -80.49040 33865 ft 492 kts 190°
2026-05-05 07:15 4.54906 -80.50498 33865 ft 493 kts 190°
2026-05-05 07:16 4.48195 -80.51962 33866 ft 492 kts 191°
2026-05-05 07:16 4.41433 -80.53494 33866 ft 493 kts 191°
2026-05-05 07:17 4.34766 -80.55004 33866 ft 491 kts 191°
2026-05-05 07:17 4.28049 -80.56524 33867 ft 492 kts 191°
2026-05-05 07:18 4.21337 -80.58041 33866 ft 491 kts 191°
2026-05-05 07:18 4.14681 -80.59546 33867 ft 491 kts 190°
2026-05-05 07:19 4.07986 -80.61058 33868 ft 492 kts 191°
2026-05-05 07:19 4.01235 -80.62582 33868 ft 492 kts 190°
2026-05-05 07:20 3.94558 -80.64090 33870 ft 492 kts 190°
2026-05-05 07:20 3.87818 -80.65611 33863 ft 492 kts 190°
2026-05-05 07:21 3.81143 -80.67118 33873 ft 492 kts 190°
2026-05-05 07:21 3.74401 -80.68639 33876 ft 492 kts 190°
2026-05-05 07:22 3.67708 -80.70149 33870 ft 491 kts 190°
2026-05-05 07:22 3.60975 -80.71668 33867 ft 492 kts 190°
2026-05-05 07:23 3.54217 -80.73193 33865 ft 493 kts 190°
2026-05-05 07:23 3.47485 -80.74711 33862 ft 493 kts 190°
2026-05-05 07:24 3.40766 -80.76226 33863 ft 492 kts 190°
2026-05-05 07:24 3.34056 -80.77738 33862 ft 493 kts 190°
2026-05-05 07:25 3.27347 -80.79261 33861 ft 492 kts 190°
2026-05-05 07:25 3.20617 -80.80801 33861 ft 492 kts 190°
2026-05-05 07:26 3.13862 -80.82347 33864 ft 494 kts 190°
2026-05-05 07:26 3.07133 -80.83886 33862 ft 494 kts 190°
2026-05-05 07:27 3.00382 -80.85430 33864 ft 493 kts 190°
2026-05-05 07:27 2.93644 -80.86970 33863 ft 493 kts 190°
2026-05-05 07:28 2.86930 -80.88505 33860 ft 493 kts 190°
2026-05-05 07:28 2.80211 -80.90041 33862 ft 493 kts 190°
2026-05-05 07:29 2.73473 -80.91580 33862 ft 493 kts 190°
2026-05-05 07:29 2.66735 -80.93119 33862 ft 495 kts 190°
2026-05-05 07:30 2.59950 -80.94669 33866 ft 496 kts 190°
2026-05-05 07:30 2.49851 -80.96976 33870 ft 495 kts 190°
2026-05-05 07:31 2.43068 -80.98525 33874 ft 496 kts 190°